• In Hungary
  • List of Countries
  • For 7 days
  • Water Temperature
  • Satellite Maps
  • Weather Map
  • News
  • Weather Widgets
  • user-avatar
    Login

    Hourly Weather Ciudad Real

    Today, 19 January, Friday

    Time Temperature Precipitation Wind Pressure Humidity
    00:00 +7°C° 0 mm 2 mps 708 mmHg 68%
    01:00 +6°C° 0 mm 2 mps 707 mmHg 67%
    02:00 +6°C° 0 mm 2 mps 707 mmHg 66%
    03:00 +6°C° 0 mm 2 mps 707 mmHg 66%
    04:00 +7°C° 0 mm 1 mps 707 mmHg 65%
    05:00 +6°C° 0 mm 1 mps 707 mmHg 65%
    06:00 +6°C° 0 mm 1 mps 707 mmHg 65%
    07:00 +7°C° 0 mm 1 mps 708 mmHg 64%
    08:00 +7°C° 0 mm 1 mps 708 mmHg 63%
    09:00 +8°C° 0 mm 1 mps 708 mmHg 62%
    10:00 +9°C° 0 mm 2 mps 709 mmHg 57%
    11:00 +12°C° 0 mm 2 mps 709 mmHg 52%
    12:00 +13°C° 0 mm 3 mps 709 mmHg 48%
    13:00 +13°C° 0 mm 3 mps 709 mmHg 47%
    14:00 +15°C° 0 mm 2 mps 709 mmHg 46%
    15:00 +15°C° 0 mm 2 mps 709 mmHg 45%
    16:00 +13°C° 0 mm 2 mps 709 mmHg 51%
    17:00 +12°C° 0 mm 2 mps 709 mmHg 57%
    18:00 +10°C° 0 mm 1 mps 710 mmHg 63%
    19:00 +9°C° 0 mm 1 mps 710 mmHg 65%
    20:00 +9°C° 0 mm 1 mps 711 mmHg 67%
    21:00 +8°C° 0 mm 1 mps 712 mmHg 69%
    22:00 +8°C° 0 mm 1 mps 712 mmHg 71%
    23:00 +7°C° 0 mm 1 mps 712 mmHg 73%

    Tomorrow, 20 January, Saturday

    Time Temperature Precipitation Wind Pressure Humidity
    00:00 +7°C° 0 mm 1 mps 712 mmHg 74%
    01:00 +6°C° 0 mm 1 mps 712 mmHg 76%
    02:00 +5°C° 0 mm 0 mps 712 mmHg 77%
    03:00 +5°C° 0 mm 0 mps 712 mmHg 79%
    04:00 +4°C° 0 mm 0 mps 712 mmHg 79%
    05:00 +4°C° 0 mm 0 mps 712 mmHg 80%
    06:00 +4°C° 0 mm 0 mps 712 mmHg 80%
    07:00 +5°C° 0 mm 0 mps 713 mmHg 76%
    08:00 +7°C° 0 mm 1 mps 713 mmHg 72%
    09:00 +8°C° 0 mm 1 mps 714 mmHg 68%
    10:00 +10°C° 0 mm 1 mps 714 mmHg 62%
    11:00 +12°C° 0 mm 2 mps 714 mmHg 55%
    12:00 +14°C° 0 mm 2 mps 714 mmHg 49%
    13:00 +14°C° 0 mm 3 mps 714 mmHg 48%
    14:00 +14°C° 0 mm 3 mps 713 mmHg 47%
    15:00 +16°C° 0 mm 3 mps 713 mmHg 46%
    16:00 +13°C° 0 mm 3 mps 713 mmHg 54%
    17:00 +11°C° 0 mm 3 mps 713 mmHg 62%
    18:00 +9°C° 0 mm 2 mps 713 mmHg 70%
    19:00 +8°C° 0 mm 2 mps 714 mmHg 72%
    20:00 +8°C° 0 mm 2 mps 714 mmHg 74%
    21:00 +7°C° 0 mm 2 mps 715 mmHg 76%
    22:00 +7°C° 0 mm 2 mps 715 mmHg 76%
    23:00 +7°C° 0 mm 1 mps 715 mmHg 76%

    Day after tomorrow, 21 January, Sunday

    Time Temperature Precipitation Wind Pressure Humidity
    00:00 +7°C° 0 mm 1 mps 715 mmHg 76%
    01:00 +7°C° 0 mm 1 mps 715 mmHg 76%
    02:00 +7°C° 0 mm 1 mps 715 mmHg 76%
    03:00 +6°C° 0 mm 1 mps 714 mmHg 76%
    04:00 +6°C° 0 mm 1 mps 714 mmHg 76%
    05:00 +6°C° 0 mm 1 mps 714 mmHg 77%
    06:00 +6°C° 0 mm 1 mps 714 mmHg 77%
    07:00 +7°C° 0 mm 1 mps 715 mmHg 74%
    08:00 +7°C° 0 mm 0 mps 715 mmHg 70%
    09:00 +8°C° 0 mm 0 mps 716 mmHg 67%
    10:00 +10°C° 0 mm 0 mps 716 mmHg 61%
    11:00 +13°C° 0 mm 1 mps 716 mmHg 55%
    12:00 +15°C° 0 mm 1 mps 716 mmHg 50%
    13:00 +15°C° 0 mm 1 mps 715 mmHg 49%
    14:00 +16°C° 0 mm 1 mps 715 mmHg 48%
    15:00 +16°C° 0 mm 1 mps 714 mmHg 48%
    16:00 +14°C° 0 mm 1 mps 714 mmHg 56%
    17:00 +13°C° 0 mm 1 mps 714 mmHg 64%
    18:00 +11°C° 0 mm 1 mps 714 mmHg 72%
    19:00 +10°C° 0 mm 1 mps 714 mmHg 75%
    20:00 +9°C° 0 mm 1 mps 715 mmHg 78%
    21:00 +8°C° 0 mm 0 mps 715 mmHg 82%
    22:00 +8°C° 0 mm 0 mps 715 mmHg 83%
    23:00 +8°C° 0 mm 1 mps 715 mmHg 84%

    22 January, Monday

    Time Temperature Precipitation Wind Pressure Humidity
    00:00 +8°C° 0 mm 1 mps 715 mmHg 86%
    01:00 +7°C° 0 mm 0 mps 714 mmHg 86%
    02:00 +6°C° 0 mm 0 mps 714 mmHg 87%
    03:00 +6°C° 0 mm 0 mps 714 mmHg 88%
    04:00 +6°C° 0 mm 0 mps 714 mmHg 88%
    05:00 +6°C° 0 mm 0 mps 714 mmHg 88%
    06:00 +5°C° 0 mm 0 mps 714 mmHg 88%
    07:00 +7°C° 0 mm 0 mps 714 mmHg 85%
    08:00 +8°C° 0 mm 0 mps 714 mmHg 82%
    09:00 +9°C° 0 mm 0 mps 715 mmHg 78%
    10:00 +11°C° 0 mm 0 mps 715 mmHg 71%
    11:00 +13°C° 0 mm 0 mps 715 mmHg 63%
    12:00 +15°C° 0 mm 0 mps 715 mmHg 55%
    13:00 +16°C° 0 mm 1 mps 714 mmHg 53%
    14:00 +18°C° 0 mm 1 mps 714 mmHg 51%
    15:00 +18°C° 0 mm 1 mps 713 mmHg 49%
    16:00 +15°C° 0 mm 1 mps 713 mmHg 56%
    17:00 +13°C° 0 mm 1 mps 713 mmHg 64%
    18:00 +11°C° 0 mm 1 mps 713 mmHg 72%
    19:00 +11°C° 0 mm 1 mps 714 mmHg 75%
    20:00 +10°C° 0 mm 1 mps 714 mmHg 77%
    21:00 +8°C° 0 mm 0 mps 714 mmHg 80%
    22:00 +8°C° 0 mm 0 mps 714 mmHg 81%
    23:00 +8°C° 0 mm 0 mps 714 mmHg 82%

    23 January, Tuesday

    Time Temperature Precipitation Wind Pressure Humidity
    00:00 +7°C° 0 mm 0 mps 714 mmHg 82%
    01:00 +7°C° 0 mm 0 mps 714 mmHg 82%
    02:00 +7°C° 0 mm 0 mps 714 mmHg 82%
    03:00 +8°C° 0 mm 1 mps 713 mmHg 82%
    04:00 +7°C° 0 mm 1 mps 713 mmHg 82%
    05:00 +7°C° 0 mm 1 mps 713 mmHg 82%
    06:00 +7°C° 0 mm 1 mps 713 mmHg 82%
    07:00 +8°C° 0 mm 1 mps 714 mmHg 79%
    08:00 +9°C° 0 mm 1 mps 714 mmHg 75%
    09:00 +10°C° 0 mm 1 mps 715 mmHg 72%
    10:00 +12°C° 0 mm 1 mps 715 mmHg 64%
    11:00 +14°C° 0 mm 1 mps 715 mmHg 57%
    12:00 +16°C° 0 mm 1 mps 715 mmHg 49%
    13:00 +16°C° 0 mm 1 mps 714 mmHg 47%
    14:00 +18°C° 0 mm 1 mps 714 mmHg 45%
    15:00 +18°C° 0 mm 1 mps 714 mmHg 42%
    16:00 +15°C° 0 mm 1 mps 713 mmHg 49%
    17:00 +13°C° 0 mm 1 mps 713 mmHg 55%
    18:00 +11°C° 0 mm 1 mps 713 mmHg 62%
    19:00 +11°C° 0 mm 1 mps 713 mmHg 64%
    20:00 +10°C° 0 mm 1 mps 713 mmHg 66%
    21:00 +9°C° 0 mm 1 mps 714 mmHg 68%
    22:00 +9°C° 0 mm 1 mps 713 mmHg 69%
    23:00 +7°C° 0 mm 0 mps 713 mmHg 70%

    24 January, Wednesday

    Time Temperature Precipitation Wind Pressure Humidity
    00:00 +7°C° 0 mm 0 mps 713 mmHg 72%
    01:00 +7°C° 0 mm 0 mps 713 mmHg 72%
    02:00 +6°C° 0 mm 0 mps 712 mmHg 72%
    03:00 +6°C° 0 mm 0 mps 712 mmHg 72%
    04:00 +6°C° 0 mm 0 mps 712 mmHg 72%
    05:00 +6°C° 0 mm 0 mps 712 mmHg 71%
    06:00 +5°C° 0 mm 0 mps 712 mmHg 71%
    07:00 +7°C° 0 mm 0 mps 712 mmHg 68%
    08:00 +8°C° 0 mm 0 mps 713 mmHg 64%
    09:00 +9°C° 0 mm 0 mps 713 mmHg 60%
    10:00 +11°C° 0 mm 0 mps 713 mmHg 53%
    11:00 +14°C° 0 mm 0 mps 713 mmHg 46%
    12:00 +16°C° 0 mm 0 mps 713 mmHg 40%
    13:00 +16°C° 0 mm 0 mps 713 mmHg 38%
    14:00 +19°C° 0 mm 1 mps 712 mmHg 37%
    15:00 +19°C° 0 mm 1 mps 712 mmHg 36%
    16:00 +16°C° 0 mm 1 mps 712 mmHg 43%
    17:00 +14°C° 0 mm 1 mps 711 mmHg 50%
    18:00 +11°C° 0 mm 0 mps 711 mmHg 58%
    19:00 +10°C° 0 mm 0 mps 711 mmHg 60%
    20:00 +9°C° 0 mm 0 mps 711 mmHg 62%
    21:00 +9°C° 0 mm 0 mps 711 mmHg 64%
    22:00 +8°C° 0 mm 0 mps 711 mmHg 65%
    23:00 +8°C° 0 mm 0 mps 711 mmHg 67%
    Show more